RASCOM-QAF 1R

Last updated on Nov. 19, 2019, 4:25 a.m. UTC

1 36831U 10037B   19322.36085418  .00000023  00000-0  00000+0 0  9998
2 36831   0.0086 351.0691 0005984 254.5484 304.3199  1.00271447 34192
UTC
Height (km)
Latitude
Longitude
Inclination
Orbital Period
UTC large
Height (km)
Speed (km/s)
/
Latitude / Longitude
Inclination (degrees)
Orbital Period (minutes)
Azimuth
Elevation
Range (km)
Doppler Factor
iOS Compass Heading
iOS Angle

Next 30 passes for location: Hong Kong

Rise time Rise Azimuth (degrees) Set time Set Azimuth (degrees) Duration Max altitude (degrees)

No matching passes for this satellites